Regional Weather Roundup
Issued by NWS Green Bay, WI

Home | Current Version | Previous Version | Text Only | Print | Product List | Glossary On
Versions: 1 2 3 4 5 6 7 8 9 10 11 12 13 14 15 16 17 18 19 20 21 22 23 24 25 26 27 28 29 30 31 32 33 34 35 36 37 38 39 40 41 42 43 44 45 46 47 48 49 50
866
ASUS43 KGRB 260900
RWRGRB

NORTH-CENTRAL AND NORTHEAST WISCONSIN REGIONAL WEATHER ROUNDUP
NATIONAL WEATHER SERVICE GREEN BAY WI
400 AM CDT MON JUN 26 2017

WIZ005-009-010>012-018-019-261000-
NORTH CENTRAL WISCONSIN

CITY           SKY/WX    TMP DP  RH WIND       PRES   REMARKS
IRONWOOD       RAIN      46  45  96 NW14      30.04S FOG
MANITOWISH WTR NOT AVBL
ARBOR VITAE    NOT AVBL
EAGLE RIVER    NOT AVBL
LAND O LAKES   CLOUDY    46  44  94 NW7       30.01S FOG
RHINELANDER    MOCLDY    46  45  96 W8        30.02S
PHILLIPS       NOT AVBL
ANTIGO         NOT AVBL
TOMAHAWK       NOT AVBL
MERRILL        PTCLDY    45  45 100 NW3       30.05S
$$

WIZ013-073-261000-
NORTHEAST WISCONSIN

CITY           SKY/WX    TMP DP  RH WIND       PRES   REMARKS
IRON MOUNTAIN  CLOUDY    49  45  86 W5        29.95F
MARINETTE      CLEAR     48  47  96 VRB3      29.99S
$$

WIZ017-030-035>037-045-261000-
CENTRAL WISCONSIN

CITY           SKY/WX    TMP DP  RH WIND       PRES   REMARKS
MEDFORD        NOT AVBL
WAUSAU         CLEAR     47  46  97 W8        30.03S
MOSINEE        NOT AVBL
MARSHFIELD     CLEAR     47  43  86 W7        30.06R
WISC RAPIDS    CLEAR     47  44  90 W9        30.08R
STEVENS POINT  NOT AVBL
WAUPACA        CLEAR     50  48  93 W5        30.05S
SHAWANO        NOT AVBL
CLINTONVILLE   CLEAR     46  45  93 W5        30.03S
WAUTOMA        CLEAR     47  45  93 W6        30.07R
$$

WIZ038-039-048-051-261000-
FOX VALLEY

CITY           SKY/WX    TMP DP  RH WIND       PRES   REMARKS
NWS GREEN BAY  CLEAR     51  51 100 W9        30.02S
APPLETON       NOT AVBL
OSHKOSH        CLEAR     51  46  83 W5        30.04S
FOND DU LAC    CLEAR     50  46  86 W6        30.05S
$$

WIZ022-050-052-261000-
EAST CENTRAL WISCONSIN

CITY           SKY/WX    TMP DP  RH WIND       PRES   REMARKS
EPHRAIM        NOT AVBL
WASHINGTON ISL NOT AVBL
STURGEON BAY     N/A     52  47  83 MISG        N/A
MANITOWOC      NOT AVBL
SHEBOYGAN      CLEAR     51  50  96 W7        30.03S
$$

LMZ563-521-522-541>543-261000-
LAKESHORE

STATION/POSITION TIME  TEMP    WIND        PRES    VSBY  WAVE
                       AIR SEA DIR/SP/G                  HT/PER
                 (UTC) (F)     (DEG/KT/KT) (MB)    (MI)  (FT/S)
SHEBOYGAN LKSHOR 0800   55     270/  9/ 10 1016.5F
KEWAUNEE LKSHORE 0830   53     290/  6/ 10 1015.4S
NORTHPORT PIER   0840   55     310/ 11/ 15 1014.2S
N MID LAKE BUOY  0750   56 58  300/ 10/ 12 1014.3F         1/ 3
S GREEN BAY BUOY 0800   55     270/ 14/ 17 1015.6
CHAMBERS ISLAND  0840   53     250/  5/ 14 1014.6S
MENOMINEE LKSHOR 0824          250/  6/ 10 1014.6
$$




USA.gov is the U.S. government's official web portal to all federal, state and local government web resources and services.